TIBA-1

Last updated on Sun Apr 12 2026 00:02:55 GMT+0000 (Coordinated Universal Time)

1 44800U 19080A 26100.81470823 .00000157 00000+0 00000+0 0 9997 2 44800 0.0573 22.4851 0001918 1.5955 143.7490 1.00273696 23387
UTC large
Height (km)
Speed (km/s)
/
Latitude / Longitude
Inclination (degrees)
Orbital Period (minutes)
Azimuth
Elevation
Range (km)
Doppler Factor

Next 0 passes for location: London (51.5072 / 0.1276)

Sorry there are no passes over London.
TIBA-1